Location: McFarlands Corners
(41.4117°N, 81.3382°W)
Time: 13:32:40
(UTC+00:00)

Courier 1B Rocket - Pass Details

Date: 25 February 2026
Orbit: 920 x 1201 km, 28.2° (Epoch: 10 March)

Event Time Altitude Azimuth Distance (km) Brightness Sun altitude
Rises 21:37:46 0° 229° (SW) 3,671 9.6 15.7°
Reaches altitude 10° 21:41:11 10° 214° (SSW) 2,681 8.6 15.1°
Maximum altitude 21:45:42 20° 168° (SSE) 2,002 7.0 14.4°
Drops below altitude 10° 21:50:06 10° 123° (ESE) 2,611 7.0 13.6°
Sets 21:53:22 0° 107° (ESE) 3,546 7.5 13.1°
